ROMMA est une association bénévole à but non lucratif. Votre soutien est indispensable : ADHERER à ROMMA ou FAIRE un DON

Val-d'Arly - (73, Savoie)

Beaufortain (2050 m)   Longitude: 06° 35' 21" E   Latitude: 45° 46' 53" N Station romma n°118
 

Détail journalier du     <<     >>

Température Precipitation Humidité Vent Dir Rafale Dir. rafale Ensol.
Heure (°C) (mm) (%) (km/h) (km/h) (min)
01:00 -4.10944ENE15OSO0
02:00 -3.709310SO19SO0
03:00 -3.309214OSO18OSO0
04:00 -2.70888OSO16OSO0
05:00 -1.307812OSO19O0
06:00 -0.706313OSO18OSO0
07:00 -0.206112O16O10
08:00 0.205310OSO18OSO40
09:00 -0.105014O21O60
10:00 0.704415O21OSO50
11:00 1.205415OSO21O60
12:00 1.504615OSO26OSO60
13:00 2.703916OSO26OSO60
14:00 3.405515O24O60
15:00 4.003715ONO31O60
16:00 4.103019ONO40ONO60
17:00 4.503625O48ONO60
18:00 4.604723O50O60
19:00 4.405219O34O30
20:00 4.704919O29O30
21:00 5.104421O34O10
22:00 4.405625O42O0
23:00 2.307931O50ONO0
minuit 2.307828OSO42O0

Graphique du 07-05-2019

 

Serveur OMMA